Printer-friendly version

IAU Minor Planet Center

Minor Planet Center

MPEC 1999-K17: 1999 KL1

The following Minor Planet Electronic Circular may be linked-to from your own Web pages, but must not otherwise be redistributed electronically.


Read MPEC 1999-K16 Read MPEC 1999-K18


M.P.E.C. 1999-K17                                Issued 1999 May 20, 21:08 UT

     The Minor Planet Electronic Circulars contain information on unusual
         minor planets and routine data on comets.  They are published
   on behalf of Commission 20 of the International Astronomical Union by the
          Minor Planet Center, Smithsonian Astrophysical Observatory,
                          Cambridge, MA 02138, U.S.A.

             BMARSDEN@CFA.HARVARD.EDU or GWILLIAMS@CFA.HARVARD.EDU
          URL http://cfa-www.harvard.edu/iau/mpc.html  ISSN 1523-6714

                                   1999 KL1

Observations:
     J99K01L* C1999 05 17.20857 14 19 47.70 +06 15 20.7          18.6        704
     J99K01L  C1999 05 17.22078 14 19 49.71 +06 13 28.1          19.0        704
     J99K01L  C1999 05 17.23299 14 19 51.63 +06 11 36.2          18.8        704
     J99K01L  C1999 05 17.24524 14 19 53.55 +06 09 46.4          19.2        704
     J99K01L  C1999 05 17.25746 14 19 55.47 +06 07 52.7          18.7        704
     J99K01L  C1999 05 18.22676 14 22 52.19 +03 43 33.4          17.9 R      703
     J99K01L  C1999 05 18.23997 14 22 54.15 +03 41 38.7          18.0 R      703
     J99K01L  C1999 05 18.24476 14 22 54.52 +03 40 58.3                      704
     J99K01L  C1999 05 18.25284 14 22 56.02 +03 39 47.6          18.0 R      703
     J99K01L  C1999 05 18.25877 14 22 56.58 +03 38 56.7                      704
     J99K01L  C1999 05 18.26653 14 22 58.04 +03 37 49.0          18.4 R      703
     J99K01L  C1999 05 18.27279 14 22 58.69 +03 36 55.5                      704
     J99K01L  C1999 05 18.90660 14 24 49.58 +02 06 45.4          17.0 V      611
     J99K01L  C1999 05 18.90984 14 24 50.03 +02 06 18.9          17.0 V      611
     J99K01L  C1999 05 18.92608 14 24 52.04 +02 04 01.9                      557
     J99K01L  C1999 05 18.92678 14 24 52.18 +02 03 56.4                      557
     J99K01L  C1999 05 18.92749 14 24 52.28 +02 03 49.9                      557
     J99K01L  C1999 05 18.92819 14 24 52.43 +02 03 44.4          18.5 V      557
     J99K01L  C1999 05 19.90626 14 27 35.15 -00 08 19.1          17.4 R      046
     J99K01L  C1999 05 19.90713 14 27 35.26 -00 08 25.8                      046
     J99K01L  C1999 05 19.90860 14 27 35.54 -00 08 37.6                      046
     J99K01L  C1999 05 19.91005 14 27 35.75 -00 08 50.4                      046
     J99K01L  C1999 05 19.91175 14 27 35.97 -00 09 01.9                      046
     J99K01L  C1999 05 20.39081 14 28 50.07 -01 10 40.9                      673
     J99K01L  C1999 05 20.39497 14 28 50.57 -01 11 09.8                      673

Observer details:
046 Klet.  Observers M. Tichy, Z. Moravec.  Measurer M. Tichy.  0.57-m f/5.2
    reflector + CCD.
557 Ondrejov.  Observer P. Pravec.  0.65-m f/3.6 reflector + CCD.
611 Starkenburg.  Observers M. Busch, S. Kluegl, E. Schwab, R. Stoss.  0.45-m
    f/4.4 reflector + CCD.
673 Table Mountain Observatory, Wrightwood.  Observer A. Doressoundiram.
    Measurer M. Hicks.  0.6-m reflector + CCD.
703 Catalina Sky Survey.  Observer T. B. Spahr.  0.41-m f/3 Schmidt + CCD.
704 Lincoln Laboratory ETS, New Mexico.  Observers M. Blythe, F. Shelly,
    M. Bezpalko, M. Elowitz.  Measurers J. Stuart, H. Viggh, R. Sayer.  1.0-m
    f/2.15 reflector + CCD.

Orbital elements:
1999 KL1
Epoch 1999 May 2.0 TT = JDT 2451300.5                   Williams
M  14.20900              (2000.0)            P               Q
n   0.44975025     Peri.  116.59384     -0.98865302     +0.01998512
a   1.6871555      Node    64.86753     -0.08663636     -0.88552497
e   0.4179144      Incl.    9.46532     +0.12271652     -0.46416175
P   2.19           H   21.5           G   0.15
From 25 observations 1999 May 17-20.

Ephemeris:
1999 KL1                 a,e,i = 1.69, 0.42, 9                   q = 0.9821
Date    TT    R. A. (2000) Decl.     Delta      r     Elong.  Phase     V
1999 05 12    14 00.76   +21 19.1    0.097    1.083   136.8    39.6    18.2
1999 05 17    14 19.13   +06 48.2    0.110    1.106   148.2    28.8    18.2
1999 05 22    14 32.96   -04 24.5    0.130    1.131   154.8    22.4    18.4
1999 05 27    14 44.04   -12 34.3    0.155    1.157   157.0    20.0    18.8
1999 06 01    14 53.39   -18 26.3    0.183    1.184   156.2    20.2    19.2
1999 06 06    15 01.68   -22 41.0    0.216    1.212   154.0    21.5    19.6
1999 06 11    15 09.36   -25 47.7    0.251    1.241   151.3    23.1    20.1
1999 06 16    15 16.77   -28 06.3    0.288    1.270   148.4    24.8    20.5
1999 06 21    15 24.14   -29 50.6    0.328    1.300   145.5    26.3    20.8
1999 06 26    15 31.59   -31 09.9    0.371    1.330   142.6    27.7    21.2
1999 07 01    15 39.18   -32 10.5    0.416    1.361   139.7    28.9    21.5
1999 07 06    15 46.95   -32 57.0    0.463    1.391   136.8    30.0    21.8
1999 07 11    15 54.94   -33 32.6    0.513    1.422   133.9    31.0    22.1

Gareth V. Williams           (C) Copyright 1999 MPC           M.P.E.C. 1999-K17

Read MPEC 1999-K16 Read MPEC 1999-K18


Our Web policy. Index to the CBAT/MPC/ICQ pages.


Valid HTML 4.01!